TITAN 3C TRANSTAGE DEB, 38693

Orbit data source: Space-Track

TITAN 3C TRANSTAGE DEB, 38693 is space debris in GEO originally from a launch on Thu, 26 Sep 1968 UTC launched from the Air Force Eastern Test Range (AFETR). Debris objects in space refer to the collection of defunct objects orbiting the Earth. Examples of debris include non-operational satellites, rocket bodies, and fragments generated from explosions, collisions, or faulty payload assembly.

Loading next visibility...
Identifier
38693, 1968-081T
Orbit
GEO
Country
Flag of USUS
Related business
Manufacturer
Unknown
Mission
Spacecraft
Bus & Motor
Unknown
Mass
Unknown
Launch date (UTC)
1968-09-26 (57 years ago)
Launch vehicle
Unknown
Launch site
Air Force Eastern Test Range (AFETR)
Object type
Payload
Rocket body
Debris
Shape & HBR
Unknown shape, 1.1 m
Radar Cross Section
Small (<0.1 m²)

Expand to show TLE details & history
Last TLE update: 2 days ago

TLE from 2 days ago
0 TITAN 3C TRANSTAGE DEB
1 38693U 68081T   25346.44329231  .00000011  00000-0  00000-0 0  9992
2 38693   2.5904  64.3680 0118867 203.0243 156.0442  1.02821859 46708
Epoch: 2025-12-12T10:38Z
TLE epoch observation values (Epoch: 2025-12-12T10:38:20.455Z)
Latitude
-0°
Longitude
-176.99127°
Altitude
35,539.301 km
Speed
3.067 km/s
True Right ascension
04h 15m 54s
True Declination
0° 00' 00"
Sunlit
Object was in daylight at epoch
Visualization orbit readout
Latitude
Unknown
Longitude
Unknown
Altitude
Unknown
Speed
Unknown
Apparent Right ascension
Unknown
Apparent Declination
Unknown
Sunlit
N/A
Visualization observer readout
Local Sidereal Time
01:39:45
Azimuth
Unknown
Elevation
Unknown
Doppler factor
Unknown
Orbital elements
Apogee altitude
35,580.508 km
Perigee altitude
34,594.726 km
Semi-major axis
41,465.754 km
Eccentricity
0.01189
Inclination
2.5904°
RAAN
64.368°
Arg. of periapsis
203.0243°
True anomaly
156.58984°
Mean anomaly
156.0442°
Eccentric anomaly
156.31776°
Mean motion
0.25704 °/min
Orbital period
1,400.53 mins
BSTAR
0
Loading maneuver chart data...
Computing Atmospheric mass density...

Documentation

Showing up to 5 results
|